Location: Grossmotten
(48.5500°N, 15.3833°E)
Time: 06:09:06
(UTC+00:00)

Cosmos 1980 Rocket - Pass Details

Date: 15 November 2019
Orbit: 827 x 851 km, 71.0° (Epoch: 06 December)

Event Time Altitude Azimuth Distance (km) Brightness Sun altitude
Exits shadow 03:48:21 49° 292° (WNW) 1,094 2.3 -22.6°
Maximum altitude 03:49:30 58° 248° (WSW) 986 2.2 -22.4°
Drops below altitude 10° 03:55:03 10° 171° (S) 2,466 4.8 -21.5°
Sets 03:57:30 0° 167° (SSE) 3,394 5.6 -21.1°
